FALCON 9 DEB (45853 NORAD) Tracking and Keplerian Element Data

This shows tracking and keplerian element data for the satellite.

Feedback or suggestion? Click here.




ElementValue
Catalog45853
NameFALCON 9 DEB
Epoch Orbit263
Epoch Day194.98784874
Epoch Year2020
RAAN146.1139
Inclination52.9967
Eccentricity0.0078232
Argument of Perigee154.0443
Mean Anonmoly206.4546
Mean Motion16.07859296
Decay Rate0.00298445
L11 45853U 20038BU 20194.98784874 .00298445 11512-4 22614-3 0 9993
L22 45853 52.9967 146.1139 0078232 154.0443 206.4546 16.07859296 2634



Live tracking and technical data element details for FALCON 9 DEB (NORAD 45853). FALCON 9 DEB can be tracked NOW for your location showing map with azimuth and elevation plus other details from your city location.







IsCatalogInMostPopularTable: catalog: 45853, numindb: 157
Update: records affected: 1



GetName: 45853 FALCON 9 DEB

Hit Count: updated at: Sun, 28 May 2023 05:49:26 GMT